Location: La Comballaz
(46.3780°N, 7.0817°E)
Time: 09:22:15
(UTC+00:00)

Cosmos 468 Rocket - Pass Details

Date: 09 April 2020
Orbit: 745 x 779 km, 74.0° (Epoch: 24 May)

Event Time Altitude Azimuth Distance (km) Brightness Sun altitude
Rises 20:33:53 0° 336° (NNW) 3,217 8.3 -22.6°
Reaches altitude 10° 20:36:16 10° 334° (NNW) 2,283 7.4 -22.9°
Maximum altitude 20:41:24 71° 252° (WSW) 794 4.0 -23.6°
Enters shadow 20:42:35 52° 188° (S) 932 4.1 -23.7°
